User: anonymous   Login
Location: Unspecified
(0.0000°N, 0.0000°E)
Time: 00:54:00
(UTC+00:00)
Language:

USA 82 - Orbit

View from above orbital plane
View from above orbital plane
View from above satellite
View from above satellite

Ground track
Ground track

The orbit data is extracted from the following two-line orbital elements,

1 22009U 92037A   23079.91087219  .00000028  00000-0  00000-0 0  9992
2 22009  13.4441  17.8356 0010447  22.3454 171.1334  0.98808749 13443
Epoch (UTC): 20 March 2023 21:51:39
Eccentricity: 0.0010447
inclination: 13.4441°
perigee height: 36157 km
apogee height: 36246 km
right ascension of ascending node: 17.8356°
argument of perigee: 22.3454°
revolutions per day: 0.98808749
mean anomaly at epoch: 171.1334°
orbit number at epoch: 1344

The dashed part of the orbit path shows where the satellite is in the earth's shadow,  

DLR